Torna al catalogo

SL-6 R/B(2)

AttivoHEO
NORAD 12827·ROCKET BODY·🇷🇺 Russia

Lanciato Sep 11, 1981 da Plesetsk Cosmodrome

Loading…

Prossimi Passaggi (prossime 24 ore)

TLE

AggiornatoSource: Space-Track

Epoca: Sep 14, 2026, 11:17 UTC

1 12827U 81088F   26257.47080106 -.00000023  00000-0  59570-4 0  9999
2 12827  62.8800 316.0659 4818345 241.8494  61.7413  5.48848779902060

Traccia SL-6 R/B(2) in tempo reale con AllMySat

Download on the App Store